Le nostre stazioni meteo in Italia

Pubblicità
Il mio iltempo24.it
Lampedusa, Italia (16490): Temperatura & dewpoint: 19.04.2018 20:00:00 - 25.04.2018 20:00:00 (CEST)Lampedusa, Italia (16490): velocità del vento: 19.04.2018 20:00:00 - 25.04.2018 20:00:00 (CEST)Lampedusa, Italia (16490): direzione del vento: 19.04.2018 20:00:00 - 25.04.2018 20:00:00 (CEST)Lampedusa, Italia (16490): visibility: 19.04.2018 20:00:00 - 25.04.2018 20:00:00 (CEST)
Data & Tempo tt [°C] td [°C] ff [km/h] ff [kn] dd vv [km]
25.04.2018 20:00:00 - - - - - -
25.04.2018 19:00:00 19,0 15,0 16 9 ESE 10
25.04.2018 18:00:00 20,0 15,0 18 10 SE 10
25.04.2018 17:00:00 20,0 15,0 16 9 ESE 10
25.04.2018 16:00:00 20,0 15,0 15 8 ESE 10
25.04.2018 15:00:00 20,0 15,0 15 8 ESE 10
25.04.2018 14:00:00 20,0 15,0 21 11 SE 10
25.04.2018 13:00:00 20,0 15,0 18 10 SE 10
25.04.2018 12:00:00 20,0 16,0 16 9 SE 10
25.04.2018 11:00:00 20,0 15,0 16 9 SE 10
25.04.2018 10:00:00 20,0 15,0 18 10 SE 10
25.04.2018 09:00:00 19,0 15,0 16 9 ESE 10
25.04.2018 08:00:00 18,0 15,0 16 9 E 10
25.04.2018 07:00:00 17,0 15,0 15 8 ESE 10
25.04.2018 06:00:00 18,0 15,0 15 8 ESE 10
25.04.2018 05:00:00 - - - - - -
25.04.2018 04:00:00 - - - - - -
25.04.2018 03:00:00 - - - - - -
25.04.2018 02:00:00 - - - - - -
25.04.2018 01:00:00 - - - - - -
25.04.2018 00:00:00 - - - - - -
24.04.2018 23:00:00 - - - - - -
24.04.2018 22:00:00 18,0 15,0 11 6 ESE 10
24.04.2018 21:00:00 19,0 14,0 11 6 E 10
24.04.2018 20:00:00 19,0 14,0 9 5 E 10
24.04.2018 19:00:00 20,0 10,0 9 5 E 10
24.04.2018 18:00:00 21,0 13,0 5 3 SE 10
24.04.2018 17:00:00 21,0 13,0 8 4 SO 10
24.04.2018 16:00:00 21,0 12,0 11 6 SO 10
24.04.2018 15:00:00 21,0 12,0 11 6 SO 10
24.04.2018 14:00:00 21,0 13,0 9 5 SSO 10
24.04.2018 13:00:00 21,0 14,0 11 6 SO 10
24.04.2018 12:00:00 20,0 14,0 9 5 SSO 10
24.04.2018 11:00:00 20,0 13,0 9 5 S 10
24.04.2018 10:00:00 19,0 15,0 9 5 SO 10
24.04.2018 09:00:00 18,0 16,0 11 6 OSO 10
24.04.2018 08:00:00 17,0 16,0 8 4 O 10
24.04.2018 07:00:00 17,0 15,0 8 4 OSO 10
24.04.2018 06:00:00 17,0 16,0 9 5 SSO 10
24.04.2018 05:00:00 - - - - - -
24.04.2018 04:00:00 - - - - - -
24.04.2018 03:00:00 - - - - - -
24.04.2018 02:00:00 - - - - - -
24.04.2018 01:00:00 - - - - - -
24.04.2018 00:00:00 18,0 14,0 8 4 ENE 10
23.04.2018 23:00:00 18,0 15,0 4 2 ENE 10
23.04.2018 22:00:00 18,0 15,0 4 2 NNE 10
23.04.2018 21:00:00 19,0 14,0 8 4 NE 10
23.04.2018 20:00:00 19,0 14,0 2 1 S 10
23.04.2018 19:00:00 20,0 14,0 4 2 SE 10
23.04.2018 18:00:00 21,0 14,0 5 3 SE 10
23.04.2018 17:00:00 21,0 14,0 5 3 ESE 10
23.04.2018 16:00:00 21,0 14,0 8 4 E 10
23.04.2018 15:00:00 20,0 14,0 9 5 ENE 10
23.04.2018 14:00:00 20,0 14,0 11 6 E 10
23.04.2018 13:00:00 20,0 14,0 11 6 ENE 10
23.04.2018 12:00:00 19,0 13,0 9 5 ENE 10
23.04.2018 11:00:00 19,0 14,0 8 4 ENE 10
23.04.2018 10:00:00 19,0 16,0 8 4 NE 10
23.04.2018 09:00:00 18,0 15,0 9 5 NE 10
23.04.2018 08:00:00 17,0 16,0 11 6 NE 10
23.04.2018 07:00:00 16,0 15,0 9 5 ENE 10
23.04.2018 06:00:00 16,0 15,0 5 3 E 10
23.04.2018 05:00:00 - - - - - -
23.04.2018 04:00:00 - - - - - -
23.04.2018 03:00:00 - - - - - -
23.04.2018 02:00:00 - - - - - -
23.04.2018 01:00:00 - - - - - -
23.04.2018 00:00:00 - - - - - -
22.04.2018 23:00:00 - - - - - -
22.04.2018 22:00:00 17,0 15,0 21 11 E 10
22.04.2018 21:00:00 18,0 15,0 16 9 ENE 10
22.04.2018 20:00:00 18,0 15,0 11 6 SE 10
22.04.2018 19:00:00 19,0 15,0 11 6 SE 10
22.04.2018 18:00:00 19,0 15,0 11 6 SE 10
22.04.2018 17:00:00 19,0 16,0 9 5 ESE 10
22.04.2018 16:00:00 20,0 15,0 15 8 SE 10
22.04.2018 15:00:00 20,0 14,0 15 8 SSE 10
22.04.2018 14:00:00 19,0 15,0 16 9 SSE 10
22.04.2018 13:00:00 18,0 14,0 15 8 SSE 10
22.04.2018 12:00:00 19,0 15,0 13 7 SE 10
22.04.2018 11:00:00 19,0 15,0 13 7 ESE 10
22.04.2018 10:00:00 17,0 16,0 5 3 SSE 10
22.04.2018 09:00:00 17,0 16,0 11 6 NNE 10
22.04.2018 08:00:00 16,0 15,0 8 4 NNE 10
22.04.2018 07:00:00 16,0 15,0 4 2 E 10
22.04.2018 06:00:00 16,0 15,0 2 1 - 10
22.04.2018 05:00:00 - - - - - -
22.04.2018 04:00:00 - - - - - -
22.04.2018 03:00:00 - - - - - -
22.04.2018 02:00:00 - - - - - -
22.04.2018 01:00:00 - - - - - -
22.04.2018 00:00:00 - - - - - -
21.04.2018 23:00:00 - - - - - -
21.04.2018 22:00:00 17,0 14,0 5 3 S 10
21.04.2018 21:00:00 17,0 14,0 8 4 S 10
21.04.2018 20:00:00 18,0 13,0 4 2 SE 10
21.04.2018 19:00:00 18,0 13,0 5 3 SSE 10
21.04.2018 18:00:00 19,0 13,0 5 3 S 10
21.04.2018 17:00:00 19,0 14,0 5 3 SSE 10
21.04.2018 16:00:00 19,0 14,0 5 3 ESE 10
21.04.2018 15:00:00 20,0 13,0 8 4 SO 10
21.04.2018 14:00:00 20,0 14,0 13 7 O 10
21.04.2018 13:00:00 20,0 12,0 8 4 NO 10
21.04.2018 12:00:00 20,0 14,0 13 7 NO 10
21.04.2018 11:00:00 20,0 14,0 13 7 NO 10
21.04.2018 10:00:00 20,0 12,0 11 6 NO 10
21.04.2018 09:00:00 19,0 13,0 9 5 NNO 10
21.04.2018 08:00:00 16,0 13,0 8 4 NO 10
21.04.2018 07:00:00 15,0 14,0 8 4 O 10
21.04.2018 06:00:00 15,0 14,0 9 5 O 10
21.04.2018 05:00:00 - - - - - -
21.04.2018 04:00:00 - - - - - -
21.04.2018 03:00:00 - - - - - -
21.04.2018 02:00:00 - - - - - -
21.04.2018 01:00:00 - - - - - -
21.04.2018 00:00:00 - - - - - -
20.04.2018 23:00:00 - - - - - -
20.04.2018 22:00:00 17,0 15,0 13 7 N 10
20.04.2018 21:00:00 17,0 15,0 11 6 N 10
20.04.2018 20:00:00 17,0 15,0 13 7 N 10
20.04.2018 19:00:00 18,0 15,0 11 6 NNO 10
20.04.2018 18:00:00 18,0 15,0 13 7 N 10
20.04.2018 17:00:00 19,0 15,0 13 7 N 10
20.04.2018 16:00:00 18,0 15,0 15 8 N 10
20.04.2018 15:00:00 18,0 15,0 16 9 NNE 10
20.04.2018 14:00:00 18,0 15,0 16 9 NNE 10
20.04.2018 13:00:00 18,0 15,0 16 9 N 10
20.04.2018 12:00:00 18,0 14,0 16 9 NNE 10
20.04.2018 11:00:00 18,0 14,0 21 11 N 10
20.04.2018 10:00:00 17,0 15,0 21 11 N 8
20.04.2018 09:00:00 - - - - - -
20.04.2018 08:00:00 16,0 15,0 18 10 NNE 8
20.04.2018 07:00:00 16,0 15,0 15 8 N 8
20.04.2018 06:00:00 16,0 15,0 15 8 N 8
20.04.2018 05:00:00 - - - - - -
20.04.2018 04:00:00 - - - - - -
20.04.2018 03:00:00 - - - - - -
20.04.2018 02:00:00 - - - - - -
20.04.2018 01:00:00 - - - - - -
20.04.2018 00:00:00 - - - - - -
19.04.2018 23:00:00 - - - - - -
19.04.2018 22:00:00 - - - - - -
19.04.2018 21:00:00 17,0 15,0 18 10 NNE 10
19.04.2018 20:00:00 17,0 15,0 18 10 NNE 10

tt = Temperatura
td = dewpoint
ff = velocità del vento
dd = direzione del vento
vv = visibility

Stazioni seguenti

WeatherPro
AMSI
MeteoEarth